Regional Weather Roundup
Issued by NWS

Home | Current Version | Previous Version | Graphics & Text | Print | Product List | Glossary On
Versions: 1 2 3 4 5 6 7 8 9 10 11 12 13 14 15 16 17 18 19 20 21 22 23 24 25 26 27 28 29 30 31 32 33 34 35 36 37 38 39 40 41 42 43 44 45 46 47 48 49 50
915
ASUS45 KTFX 251710
RWRMT
MONTANA REGIONAL WEATHER ROUNDUP
NATIONAL WEATHER SERVICE GREAT FALLS MT
1100 AM MDT MON SEP 25 2017

NOTE: "FAIR" INDICATES FEW OR NO CLOUDS BELOW 12000 FEET WITH NO
SIGNIFICANT WEATHER AND/OR OBSTRUCTIONS TO VISIBILITY.

MTZ001>007-043-251800-
WEST OF THE DIVIDE

CITY           SKY/WX    TMP DP  RH WIND       PRES   REMARKS
KALISPELL      CLOUDY    53  43  68 CALM      30.08R
MISSOULA       CLOUDY    49  43  80 CALM      30.12R
BUTTE          CLOUDY    39  31  72 CALM      30.13S
MULLAN PASS    CLOUDY    43  35  73 VRB3      30.13S
ANACONDA         N/A     50  30  46 S8        30.11R
DEER LODGE       N/A     45  34  65 CALM      30.14S
EUREKA           N/A     54  39  58 MISG      30.07S
HAMILTON         N/A     48  37  66 S6        30.12R
LIBBY            N/A     52  43  71 CALM      30.07S
$$

MTZ008-052>055-251800-
SOUTHWEST MONTANA

CITY           SKY/WX    TMP DP  RH WIND       PRES   REMARKS
BOZEMAN        SUNNY     47  31  53 SE5       30.12F
DILLON         CLOUDY    43  32  65 CALM      30.12S
W YELLOWSTONE  SUNNY     41  25  52 CALM      30.14F
ENNIS          PTSUNNY   46  28  49 CALM      30.17F
THREE FORKS      N/A     44  34  68 CALM      30.10S
$$

MTZ009-010-012-014-046-048-049-054-251800-
EAST SLOPES AND CENTRAL MONTANA

CITY           SKY/WX    TMP DP  RH WIND       PRES   REMARKS
CUT BANK       MOSUNNY   53  38  56 SE7       30.02S
GREAT FALLS    SUNNY     54  33  45 SW13      30.04F
MALMSTROM AFB  SUNNY     55  34  46 SW9       30.05S
HELENA         CLOUDY    45  35  68 CALM      30.10F
BOWMANS CRNR     N/A     50  35  55 S14       30.03S
CHOTEAU          N/A     54  36  50 CALM      30.05S
FAIRFIELD        N/A     52  35  53 S6        30.03F
POWER            N/A     51  35  55 S9        30.04S
RAYNESFORD       N/A     54  33  43 NW3       30.05F
ULM              N/A     55  35  47 SW8       30.04F
$$

MTZ011-013-016-021-045-047-050-051-251800-
NORTH CENTRAL MONTANA

CITY           SKY/WX    TMP DP  RH WIND       PRES   REMARKS
HAVRE          SUNNY     53  35  50 CALM      30.05S
LEWISTOWN      SUNNY     51  31  46 VRB3      30.06F
N BAR RANCH      N/A     52  32  46 CALM      30.08F
CHINOOK          N/A     50  41  71 E5        30.05F
DENTON           N/A     50  34  54 SE3       30.03F
GEYSER           N/A     52  29  40 NE5       30.05F
JUDITH GAP       N/A     45  34  65 S12       30.06F
WINIFRED         N/A     51  35  55 E7        30.06F
$$

MTZ017>020-022>027-061-062-251800-
NORTHEAST MONTANA

CITY           SKY/WX    TMP DP  RH WIND       PRES   REMARKS
GLASGOW        CLOUDY    51  42  71 SE9       30.11F
JORDAN           N/A     53  38  56 S13       30.10F
SIDNEY           N/A    N/A N/A N/A MISG        N/A
WOLF POINT     SUNNY     49  41  74 E5        30.15F
MALTA          SUNNY     55  41  58 SE9       30.09F
PLENTYWOOD       N/A     45  39  81 CALM      30.16S
POPLAR           N/A     46  41  81 SE7       30.16S
$$

MTZ028>42-056>058-251800-
SOUTHCENTRAL AND SOUTHEAST MONTANA

CITY           SKY/WX    TMP DP  RH WIND       PRES   REMARKS
BAKER          LGT RAIN  43  38  82 SE5       30.15F
BILLINGS       CLOUDY    47  39  74 S7        30.10F
LIVINGSTON     SUNNY     52  30  43 SW9       30.09F
MILES CITY     CLOUDY    43  40  89 SE7       30.14F
BIG TIMBER     SUNNY     50  32  50 W15       30.10F
HARLOWTON        N/A     50  34  54 MISG      30.07F
LAUREL           N/A     50  41  71 S6        30.10F
$$

REGIONAL REPORTS...DAKOTAS

CITY           SKY/WX    TMP DP  RH WIND       PRES   REMARKS
WILLISTON      CLOUDY    49  43  80 CALM      30.18S
MINOT          CLOUDY    51  45  79 SE3       30.17S
DICKINSON      CLOUDY    46  43  89 CALM      30.14F
BEACH          CLOUDY    45  41  87 SE9       30.19S
CROSBY         CLOUDY    48  45  87 S5        30.18R
TIOGA          CLOUDY    50  45  81 SE5       30.18S
BISMARCK       CLOUDY    52  45  77 NE6       30.16S
GRAND FORKS    CLOUDY    51  47  86 N12       30.13S
FARGO          CLOUDY    51  47  86 N15       30.10S
BUFFALO SD       N/A     46  40  79 E6        30.08F
RAPID CITY     CLOUDY    45  43  93 SE9       30.14S
$$

REGIONAL REPORTS...WYOMING/IDAHO/WASHINGTON

CITY           SKY/WX    TMP DP  RH WIND       PRES   REMARKS
GILLETTE       CLOUDY    43  39  86 CALM      30.12S
SHERIDAN       CLOUDY    47  42  83 SW3       30.12S
BUFFALO WY     CLOUDY    43  38  82 MISG      30.12S
CODY           SUNNY     46  36  68 S7        30.12F
IDAHO FALLS    MOSUNNY   47  35  63 W7        30.15F
SALMON         CLOUDY    49  33  54 NE3       30.15F
BOISE          SUNNY     53  34  48 SE5       30.14S
SPOKANE        PTSUNNY   58  44  60 SE7       30.08S
$$

REGIONAL REPORTS...ALBERTA

CITY           SKY/WX    TMP DP  RH WIND       PRES   REMARKS
EDMONTON       PTSUNNY   59  50  72 W6        29.91S
CALGARY        MOSUNNY   59  37  44 CALM      29.97F
LETHBRIDGE     PTSUNNY   57  37  47 W7        29.98S
MEDICINE HAT   PTSUNNY   57  36  44 VRB2      29.98F
$$

REGIONAL REPORTS...SASKATCHEWAN

CITY           SKY/WX    TMP DP  RH WIND       PRES   REMARKS
SWIFT CURRENT    N/A     55  37  50 S17G25    30.03F
REGINA         PTSUNNY   55  36  47 S13       30.13S
SASKATOON      MOSUNNY   55  41  58 S12       30.06F
$$




USA.gov is the U.S. government's official web portal to all federal, state and local government web resources and services.